User: anonymous
Location: NJAA Observatory
(40.6819°N, 74.8979°W)
Time: 05:48:18
(UTC-04:00)
Language:

ATLAS CENTAUR R/B - Orbit

View from above orbital plane
View from above orbital plane
View from above satellite
View from above satellite

Ground track
Ground track

The orbit data is extracted from the following two-line orbital elements,

1 28385U 04034B   14268.33692347 0.00030000  00000-0  11911-2 0    06
2 28385  57.3878  35.4503 4069082 347.6577  12.4605  7.35015927    01
Epoch (UTC): 25 September 2014 08:05:10
Eccentricity: 0.4069082
inclination: 57.3878°
perigee height: 249 km
apogee height: 9342 km
right ascension of ascending node: 35.4503°
argument of perigee: 347.6577°
revolutions per day: 7.35015927
mean anomaly at epoch: 12.4605°
orbit number at epoch: 0

The dashed part of the orbit path shows where the satellite is in the earth's shadow,  

DLR